Weather History for Monroe, MI

Change the Weather History Date:

Sunday, December 8, 2013

  Actual Average Record
Temperature  
Mean Temperature 21 °F -  
Max Temperature 30 °F 38 °F 64 °F (1966)
Min Temperature 12 °F 28 °F 1 °F (1977)
Degree Days  
Heating Degree Days 44    
Moisture  
Dew Point 18 °F    
Average Humidity 83    
Maximum Humidity 100    
Minimum Humidity 73    
Precipitation  
Precipitation 0.00 in - - ()
Sea Level Pressure  
Sea Level Pressure 30.33 in    
Wind  
Wind Speed 5 mph (ENE)    
Max Wind Speed 15 mph    
Max Gust Speed 23 mph    
Visibility 8 miles    
Events Snow    
Averages and records for this station are not official NWS values.
T = Trace of Precipitation, MM = Missing Value Source: NWS Daily Summary

Daily Weather History Graph

Daily Weather History Graph

Search for Another Location

Airport:

Trip Planner

Search our weather history database for the weather conditions in past years. The results will help you decide how hot, cold, wet, or windy it might be!

Date:

Astronomy

Dec. 08, 2013 Rise Set
Actual Time 7:49 AM EST 5:02 PM EST
Civil Twilight 7:17 AM EST 5:33 PM EST
Nautical Twilight 6:42 AM EST 6:08 PM EST
Astronomical Twilight 6:08 AM EST 6:42 PM EST
Moon 12:04 PM EST (12/8) 11:55 PM EST (12/8)
Length of Visible Light 10h 16m
Length of Day
9h 13m
Waxing Crescent, 40% of the Moon is Illuminated
Dec 8
Waxing Crescent
Dec 9
First Quarter
Dec 17
Full
Dec 25
Last Quarter
Jan 1
New

Hourly Weather History & Observations

Time (EST) Temp. Windchill Dew Point Humidity Pressure Visibility Wind Dir Wind Speed Gust Speed Precip Events Conditions
12:15 AM 14.0 °F - 10.4 °F 86% 30.57 in 10.0 mi Calm Calm - N/A   Clear
12:36 AM 14.0 °F - 10.4 °F 86% 30.56 in 10.0 mi Calm Calm - N/A   Clear
12:56 AM 12.2 °F - 10.4 °F 92% 30.55 in 10.0 mi Calm Calm - N/A   Clear
1:16 AM 12.2 °F - 10.4 °F 92% 30.53 in 10.0 mi Calm Calm - N/A   Clear
1:36 AM 12.2 °F - 10.4 °F 92% 30.53 in 10.0 mi Calm Calm - N/A   Clear
1:56 AM 14.0 °F - 10.4 °F 86% 30.54 in 10.0 mi Calm Calm - N/A   Clear
2:16 AM 14.0 °F - 10.4 °F 86% 30.54 in 10.0 mi Calm Calm - N/A   Clear
2:36 AM 14.0 °F - 10.4 °F 86% 30.54 in 10.0 mi Calm Calm - N/A   Clear
2:56 AM 15.8 °F - 10.4 °F 79% 30.54 in 10.0 mi Calm Calm - N/A   Clear
3:16 AM 15.8 °F - 10.4 °F 79% 30.55 in 10.0 mi Calm Calm - N/A   Clear
3:36 AM 15.8 °F - 10.4 °F 79% 30.55 in 10.0 mi Calm Calm - N/A   Clear
3:56 AM 15.8 °F 8.6 °F 10.4 °F 79% 30.54 in 10.0 mi North 4.6 mph - N/A   Clear
4:16 AM 15.8 °F 7.2 °F 10.4 °F 79% 30.52 in 10.0 mi North 5.8 mph - N/A   Clear
4:37 AM 15.8 °F 8.6 °F 10.4 °F 79% 30.52 in 10.0 mi North 4.6 mph - N/A   Clear
4:57 AM 17.6 °F 8.2 °F 10.4 °F 73% 30.51 in 10.0 mi North 6.9 mph - N/A   Clear
5:12 AM 17.6 °F 8.2 °F 10.4 °F 73% 30.51 in 10.0 mi North 6.9 mph - N/A   Clear
5:32 AM 17.6 °F 9.3 °F 10.4 °F 73% 30.51 in 10.0 mi North 5.8 mph - N/A   Clear
5:52 AM 17.6 °F 8.2 °F 10.4 °F 73% 30.50 in 10.0 mi NNE 6.9 mph - N/A   Clear
6:12 AM 17.6 °F 10.7 °F 10.4 °F 73% 30.50 in 10.0 mi NNE 4.6 mph - N/A   Clear
6:32 AM 17.6 °F 9.3 °F 10.4 °F 73% 30.50 in 10.0 mi North 5.8 mph - N/A   Clear
6:52 AM 17.6 °F 10.7 °F 10.4 °F 73% 30.50 in 10.0 mi NNE 4.6 mph - N/A   Clear
7:12 AM 17.6 °F 9.3 °F 10.4 °F 73% 30.49 in 10.0 mi NE 5.8 mph - N/A   Clear
7:32 AM 17.6 °F 10.7 °F 10.4 °F 73% 30.50 in 10.0 mi NE 4.6 mph - N/A   Clear
7:52 AM 17.6 °F 9.3 °F 10.4 °F 73% 30.49 in 10.0 mi NNE 5.8 mph - N/A   Clear
8:13 AM 17.6 °F 8.2 °F 10.4 °F 73% 30.47 in 10.0 mi NE 6.9 mph - N/A   Clear
8:33 AM 17.6 °F 10.7 °F 10.4 °F 73% 30.47 in 10.0 mi NNE 4.6 mph - N/A   Scattered Clouds
8:53 AM 17.6 °F 10.7 °F 10.4 °F 73% 30.48 in 10.0 mi NNE 4.6 mph - N/A   Overcast
9:13 AM 17.6 °F 8.2 °F 12.2 °F 79% 30.47 in 10.0 mi NE 6.9 mph - N/A   Overcast
9:33 AM 19.4 °F 9.5 °F 12.2 °F 74% 30.46 in 10.0 mi NE 8.1 mph - N/A   Mostly Cloudy
9:53 AM 19.4 °F 9.5 °F 12.2 °F 74% 30.45 in 10.0 mi ENE 8.1 mph - N/A   Overcast
10:13 AM 21.2 °F 12.6 °F 14.0 °F 74% 30.44 in 10.0 mi NE 6.9 mph - N/A   Overcast
10:33 AM 21.2 °F 11.7 °F 14.0 °F 74% 30.43 in 10.0 mi ENE 8.1 mph - N/A   Overcast
10:54 AM 21.2 °F 12.6 °F 14.0 °F 74% 30.43 in 10.0 mi ENE 6.9 mph - N/A   Overcast
11:14 AM 21.2 °F 12.6 °F 15.8 °F 80% 30.42 in 10.0 mi ENE 6.9 mph - N/A   Overcast
11:34 AM 23.0 °F 13.9 °F 15.8 °F 74% 30.41 in 10.0 mi NE 8.1 mph - N/A   Overcast
11:54 AM 23.0 °F 14.7 °F 15.8 °F 74% 30.39 in 10.0 mi NE 6.9 mph - N/A   Overcast
12:14 PM 23.0 °F 13.1 °F 15.8 °F 74% 30.37 in 2.0 mi ENE 9.2 mph 16.1 mph N/A Snow Light Snow
12:34 PM 23.0 °F 13.1 °F 19.4 °F 86% 30.36 in 1.8 mi ENE 9.2 mph - N/A Snow Light Snow
12:54 PM 24.8 °F 16.1 °F 19.4 °F 80% 30.35 in 1.8 mi NE 8.1 mph - N/A Snow Light Snow
1:14 PM 24.8 °F 15.3 °F 19.4 °F 80% 30.34 in 2.5 mi ENE 9.2 mph - N/A Snow Light Snow
1:34 PM 24.8 °F 14.0 °F 19.4 °F 80% 30.32 in 5.0 mi ENE 11.5 mph - N/A Snow Light Snow
1:54 PM 24.8 °F 15.3 °F 21.2 °F 86% 30.30 in 4.0 mi NE 9.2 mph - N/A Snow Light Snow
2:14 PM 24.8 °F 14.6 °F 21.2 °F 86% 30.29 in 10.0 mi ENE 10.4 mph 16.1 mph N/A Snow Light Snow
2:34 PM 24.8 °F 15.3 °F 21.2 °F 86% 30.28 in 10.0 mi ENE 9.2 mph - N/A   Overcast
2:54 PM 24.8 °F 14.6 °F 21.2 °F 86% 30.27 in 10.0 mi ENE 10.4 mph - N/A   Overcast
3:15 PM 24.8 °F 14.0 °F 21.2 °F 86% 30.25 in 10.0 mi ENE 11.5 mph 16.1 mph N/A Snow Light Snow
3:35 PM 24.8 °F 15.3 °F 21.2 °F 86% 30.25 in 10.0 mi ENE 9.2 mph - N/A   Overcast
3:55 PM 24.8 °F 16.1 °F 21.2 °F 86% 30.23 in 10.0 mi ENE 8.1 mph - N/A Snow Light Snow
4:15 PM 26.6 °F 20.0 °F 21.2 °F 80% 30.22 in 10.0 mi ENE 5.8 mph - N/A   Overcast
4:35 PM 26.6 °F 17.5 °F 21.2 °F 80% 30.20 in 10.0 mi ENE 9.2 mph 16.1 mph N/A   Overcast
4:55 PM 26.6 °F 17.5 °F 23.0 °F 86% 30.19 in 10.0 mi ENE 9.2 mph - N/A   Overcast
5:15 PM 26.6 °F 17.5 °F 23.0 °F 86% 30.17 in 10.0 mi ENE 9.2 mph - N/A   Overcast
5:36 PM 26.6 °F 18.2 °F 23.0 °F 86% 30.16 in 10.0 mi ENE 8.1 mph - N/A   Overcast
5:56 PM 26.6 °F 17.5 °F 23.0 °F 86% 30.15 in 10.0 mi NE 9.2 mph - N/A   Overcast
6:16 PM 26.6 °F 19.1 °F 24.8 °F 93% 30.14 in 10.0 mi ENE 6.9 mph - N/A   Overcast
6:36 PM 28.4 °F 22.2 °F 24.8 °F 86% 30.14 in 10.0 mi NE 5.8 mph - N/A   Overcast
6:56 PM 28.4 °F 22.2 °F 24.8 °F 86% 30.13 in 10.0 mi ENE 5.8 mph - N/A   Overcast
7:16 PM 30.2 °F 20.2 °F 24.8 °F 80% 30.09 in 7.0 mi East 12.7 mph 23.0 mph N/A Snow Light Snow
7:36 PM 30.2 °F 20.2 °F 26.6 °F 86% 30.10 in 3.0 mi East 12.7 mph 21.9 mph N/A Snow Light Snow
7:56 PM 30.2 °F 20.8 °F 28.4 °F 93% 30.09 in 2.5 mi East 11.5 mph 20.7 mph N/A Snow Light Snow
8:16 PM 30.2 °F 19.8 °F 28.4 °F 93% 30.08 in 1.2 mi ESE 13.8 mph - N/A Snow Light Snow
8:36 PM 30.2 °F 20.2 °F 28.4 °F 93% 30.07 in 2.0 mi ESE 12.7 mph 19.6 mph N/A Snow Light Snow
8:56 PM 30.2 °F 19.3 °F 28.4 °F 93% 30.05 in 1.8 mi East 15.0 mph 19.6 mph N/A Snow Light Snow
9:17 PM 28.4 °F 18.0 °F 28.4 °F 100% 30.04 in 1.8 mi ESE 12.7 mph 20.7 mph N/A Snow Light Snow
9:37 PM 28.4 °F 18.5 °F 28.4 °F 100% 30.03 in 1.5 mi ESE 11.5 mph 19.6 mph N/A Snow Light Snow
9:52 PM 28.4 °F 18.0 °F 28.4 °F 100% 30.02 in 1.8 mi ESE 12.7 mph 18.4 mph N/A Snow Light Snow
10:12 PM 28.4 °F 19.1 °F 28.4 °F 100% 30.02 in 2.0 mi ESE 10.4 mph - N/A Snow Light Snow
10:32 PM 28.4 °F 19.1 °F 28.4 °F 100% 30.01 in 2.0 mi ESE 10.4 mph - N/A   Overcast
10:52 PM 30.2 °F 21.9 °F 28.4 °F 93% 30.00 in 3.0 mi SE 9.2 mph - N/A   Overcast
11:12 PM 30.2 °F 21.9 °F 28.4 °F 93% 29.99 in 7.0 mi SE 9.2 mph - N/A   Overcast
11:32 PM 30.2 °F 22.6 °F 28.4 °F 93% 29.98 in 5.0 mi SE 8.1 mph - N/A   Overcast
11:52 PM 30.2 °F 23.4 °F 28.4 °F 93% 29.97 in 5.0 mi SE 6.9 mph - N/A   Overcast